Regional Weather Roundup
Issued by NWS

Home | Current Version | Previous Version | Graphics & Text | Print | Product List | Glossary On
Versions: 1 2 3 4 5 6 7 8 9 10 11 12 13 14 15 16 17 18 19 20 21 22 23 24 25 26 27 28 29 30 31 32 33 34 35 36 37 38 39 40 41 42 43 44 45 46 47 48 49 50
000
ASUS43 KOAX 242310
RWRNE

WEATHER ROUNDUP FOR NEBRASKA
NATIONAL WEATHER SERVICE OMAHA NE
600 PM CDT SAT SEP 24 2016

NOTES: SATELLITE DATA IS BEING USED TO AUGMENT CLOUD COVER ABOVE
       12000 FEET.
       "FAIR" INDICATES FEW OR NO CLOUDS BELOW 12,000 FEET WITH NO
       SIGNIFICANT WEATHER AND/OR OBSTRUCTIONS TO VISIBILITY.

  * THESE STATIONS DO NOT REPORT WEATHER SUCH AS RAIN...SNOW OR FOG.

NEZ001>004-019>022-054>056-250000-
NEBRASKA PANHANDLE

CITY           SKY/WX    TMP DP  RH WIND       PRES   REMARKS
SCOTTSBLUFF    CLOUDY    65  41  41 NW18G26   30.03R
ALLIANCE       PTSUNNY   64  40  41 NW22G30   29.99R
CHADRON        SUNNY     59  40  49 W23G37    30.02R
KIMBALL        CLOUDY    65  37  35 NW16G28   30.05R
SIDNEY         MOSUNNY   69  32  25 NW10      30.02R
$$

NEZ057>060-069>072-079>082-250000-
SOUTHWEST NEBRASKA

CITY           SKY/WX    TMP DP  RH WIND       PRES   REMARKS
NORTH PLATTE   SUNNY     79  42  26 NW6       29.93R
IMPERIAL       SUNNY     74  33  22 NW3       29.95R
LEXINGTON      SUNNY     77  40  26 W5        29.92R
MCCOOK         SUNNY     76  40  27 S6        29.92R
OGALLALA       SUNNY     76  30  18 W8        29.95R
$$

NEZ005>010-023>029-035>040-094-250000-
NORTH CENTRAL NEBRASKA

CITY           SKY/WX    TMP DP  RH WIND       PRES   REMARKS
VALENTINE      SUNNY     74  34  23 W21G29    29.89R
AINSWORTH      SUNNY     75  39  27 W14       29.91R
BROKEN BOW     SUNNY     77  38  24 SW5       29.91R
O`NEILL        SUNNY     78  39  24 W5        29.88S
ORD            SUNNY     79  45  29 CALM      29.88R
THEDFORD       SUNNY     75  38  26 W12G21    29.94R
$$

NEZ041-046>049-061>064-073>077-083>087-250000-
SOUTH CENTRAL NEBRASKA

CITY           SKY/WX    TMP DP  RH WIND       PRES   REMARKS
GRAND ISLAND   MOSUNNY   73  64  73 SW7       29.91R
AURORA         CLOUDY    74  68  82 W6        29.90S
HASTINGS       CLOUDY    74  62  66 S8        29.92R
HEBRON         CLOUDY    72  69  92 SE6       29.91F
HOLDREGE       SUNNY     78  44  30 CALM      29.91R
KEARNEY *      SUNNY     79  45  29 W7        29.89R
YORK           CLOUDY    72  66  83 SE10      29.90F
$$

NEZ011>018-030>034-042>045-250000-
NORTHEAST NEBRASKA

CITY           SKY/WX    TMP DP  RH WIND       PRES   REMARKS
NORFOLK        CLOUDY    73  67  81 S6        29.89R
ALBION         PTSUNNY   74  63  68 S12       29.90R
BLAIR          LGT RAIN  72  70  94 SE8       29.89F
FREMONT        CLOUDY    72  70  93 S5        29.89F
TEKAMAH        CLOUDY    73  71  93 S8        29.88R
WAYNE          CLOUDY    73  70  91 S5        29.90R
$$

NEZ050>053-065>068-078-088>093-250000-
SOUTHEAST NEBRASKA

CITY           SKY/WX    TMP DP  RH WIND       PRES   REMARKS
LINCOLN        CLOUDY    72  70  93 S6        29.92R
OMAHA EPPLEY   LGT RAIN  73  70  90 S15       29.89F
BEATRICE       LGT RAIN  69  68  96 S8        29.93S
FALLS CITY     LGT RAIN  69  69 100 E8        29.91F
NEBRASKA CITY  LGT RAIN  70  67  90 S5        29.92F
PLATTSMOUTH    RAIN      71  68  89 S6        29.91F
$$

NEZ044-045-051>053-067-250000-
OMAHA AREA

CITY           SKY/WX    TMP DP  RH WIND       PRES   REMARKS
OMAHA EPPLEY   LGT RAIN  73  70  90 S15       29.89F
BLAIR          LGT RAIN  72  70  94 SE8       29.89F
FREMONT        CLOUDY    72  70  93 S5        29.89F
MILLARD        LGT RAIN  73  71  95 SE10      29.89F
OFFUTT AFB     LGT RAIN  71  71 100 S10       29.90S
PLATTSMOUTH    RAIN      71  68  89 S6        29.91F
WAHOO          FAIR      71  69  93 S6        29.91R
$$




USA.gov is the U.S. government's official web portal to all federal, state and local government web resources and services.